Observer details:
165 Piera Observatory, Barcelona.  Observer J. Guarro.  0.40-m f/2 Schmidt
    + CCD.
176 Observatori Astronomic de Consell.  Observers A. Lopez, R. Pacheco.
    0.2-m Schmidt-Cassegrain + CCD.
294 Astrophysical Obs., College of Staten Island.  Observer I. Robbins.
    0.406-m f/5.0 Schmidt-Cassegrain + CCD.
322 Perth Observatory, Bickley-MCT.  Observer J. Biggs.  0.25-m f/4.5 reflector
    + CCD.
422 Loomberah.  Observer G. J. Garradd.  0.45-m f/5.4 reflector + CCD.
428 Reedy Creek.  Observer J. Broughton.  0.25-m f/6.3 Schmidt-Cassegrain
    + CCD.
493 Calar Alto.  Observers DANEOPS Team (M. Busch, A. Seib, F. Hormuth).
    Measurers R. Stoss, A. Gnadig, A. Doppler.  1.52-m reflector + CCD.
557 Ondrejov.  Observer P. Kusnirak.  0.65-m f/3.6 reflector + CCD.
587 Sormano.  Observers F. Manca, A. Testa.  0.5-m reflector + CCD.
620 Observatorio Astronomico de Mallorca.  Observer S. Sanchez.
    0.30-m f/3.3 Schmidt-Cassegrain + CCD.
704 Lincoln Laboratory ETS, New Mexico.  Observers M. Blythe, F. Shelly,
    M. Bezpalko, R. Huber, L. Manguso, S. Adams.  Measurers J. Stuart,
    R. Sayer, J. B. Evans, H. Viggh.  1.0-m f/2.15 reflector + CCD.
859 Wykrota Observatory-CEAMIG.  Observers C. Jacques, J. Amancio, G. Nappi.
    0.3-m f/3.3 Schmidt-Cassegrain + CCD.
860 Valinhos.  Observers P. R. Holvorcem, M. Fidncio Neto.  0.36-m f/3.6
    Schmidt-Cassegrain + CCD.
919 Desert Beaver Observatory.  Observer K. W. Yeung.  0.45-m reflector + CCD.
938 Linhaceira.  Observer R. Goncalves.  0.25-m f/6.7 Schmidt Cassegrain + CCD.

Orbital elements:
2001 ME1                                                             PHA 0.013
Epoch 2001 Apr. 1.0 TT = JDT 2452000.5                  Spahr
M 329.21730              (2000.0)            P               Q
n   0.23072442     Peri.  299.86665     +0.88841842     -0.44796390
a   2.6327342      Node    86.90745     +0.44813436     +0.79911577
e   0.8640706      Incl.    5.75939     +0.09943996     +0.40092685
P   4.27           H   16.9           G   0.15           U   8
Residuals in seconds of arc
010525 704  0.0   0.2-    010618 704 (3.1+  0.3-)   010618 938  0.0   0.1+
010525 704  0.4+  0.1+    010618 704  0.0   0.0     010618 176  2.5+  1.8-
010525 704  0.2-  0.9-    010618 422  0.2-  0.0     010618 938  0.0   0.0
010616 704  0.4-  0.4+    010618 422  0.1-  0.0     010618 938  0.2-  0.4+
010616 704  0.3+  0.3+    010618 422  0.0   0.1+    010618 938  0.0   0.0
010616 704  0.2-  0.3+    010618 704  0.1+  0.2+    010618 938  0.4-  0.4-
010616 704  0.5+  0.4-    010618 704  0.0   0.6+    010618 176  3.0+  1.8-
010616 704  0.1-  0.6+    010618 704  0.3+  0.5+    010618 938  0.3-  0.4+
010617 860  1.7+  1.0-    010618 428  0.1-  0.3+    010618 176 (3.2+  1.9-)
010617 860  1.1+  0.8+    010618 428  0.2-  0.3+    010618 938  0.0   0.3-
010617 860  0.6+  0.6+    010618 428  0.2-  0.3+    010618 938  0.0   0.2-
010617 859  1.9-  0.2+    010618 428  0.3-  0.3+    010618 176 (3.5+  2.0-)
010617 859  0.5-  0.1-    010618 428  0.2-  0.2+    010618 938  0.2-  0.0
010617 859  1.7-  0.5-    010618 428  0.4-  0.3+    010618 938  0.0   0.1+
010617 859  0.7-  0.9-    010618 322  0.4-  0.3-    010618 938  0.1+  0.1+
010617 422  0.2+  0.0     010618 322  0.3-  0.3-    010618 938  0.2+  0.1-
010617 422  0.3+  0.0     010618 322  0.3-  0.3-    010618 938  0.3-  0.0
010617 422  0.3+  0.0     010618 322  0.1+  0.3-    010618 938  0.4-  0.1+
010617 165  0.6+  0.5+    010618 322  0.3-  0.4-    010618 938  0.3-  0.1-
010617 165  0.4+  0.1+    010618 322  0.3-  0.2-    010618 938  0.3-  0.0
010617 165  0.7+  1.0+    010618 322  0.4-  0.3-    010618 938  0.1-  0.5-
010617 165  0.2+  0.4-    010618 322  0.2-  0.2-    010619 493  0.4-  0.0
010617 557  1.0+  0.2+    010618 322  0.2-  0.2-    010619 493  0.2-  0.0
010617 557  0.6-  0.5+    010618 322  0.3-  0.2-    010619 704  0.9-  0.4+
010617 620  1.0-  1.4+    010618 422  0.2+  0.1+    010619 704  0.2-  0.5+
010617 620  0.3-  1.9+    010618 422  0.1+  0.1+    010619 919  0.8-  0.3+
010617 620  0.9+  1.6+    010618 587  0.4-  0.0     010619 704  0.3-  0.2-
010618 294  0.5-  0.3-    010618 587  0.2-  0.1+    010619 919  0.4+  0.1+
010618 294  0.9-  0.2-    010618 587  0.8-  0.2+    010619 704  0.2-  0.2-
010618 294  0.4+  0.2-    010618 587  0.1+  0.2-    010619 919  0.0   0.0
010618 294  0.4-  0.4-    010618 938  0.4-  0.0     010619 704  0.5-  0.1-
010618 294  0.7-  0.3-    010618 938  0.1-  0.2+    010619 704  0.2-  0.0
010618 919  0.4-  0.3+    010618 938  0.2-  0.0     010619 704  0.3-  0.0
010618 919  0.2-  0.2+    010618 938  0.0   0.1+    010619 704  0.2-  0.3-
010618 919  0.2-  0.3+    010618 938  0.1-  0.2+    010619 704  0.1-  0.2+

Ephemeris:
2001 ME1                 a,e,i = 2.63, 0.86, 6                   q = 0.3579
Date    TT    R. A. (2000) Decl.     Delta      r     Elong.  Phase     V
2001 06 10    17 50.46   -21 06.1    0.328    1.340   171.1     6.7    15.6
2001 06 15    17 26.98   -21 32.8    0.249    1.265   177.7     1.9    14.6
2001 06 20    16 43.30   -21 51.5    0.178    1.188   163.5    14.1    14.3
2001 06 25    15 12.83   -20 16.5    0.120    1.108   137.7    38.1    14.0
2001 06 30    12 30.65   -10 12.3    0.097    1.026    92.8    81.8    14.8

Timothy B. Spahr             (C) Copyright 2001 MPC           M.P.E.C. 2001-M12

Read MPEC 2001-M11 Read MPEC 2001-M13


Our Web policy. Index to the CBAT/MPC/ICQ pages.

